Weather History for Telfer, WE

Change the Weather History Date:

Friday, January 11, 2013

  Actual Average Record
Temperature  
Mean Temperature 94 °F -  
Max Temperature 105 °F - - ()
Min Temperature 82 °F - - ()
Cooling Degree Days 28    
Growing Degree Days 44 (Base 50)    
Moisture  
Dew Point 65 °F    
Average Humidity 39    
Maximum Humidity 62    
Minimum Humidity 18    
Precipitation  
Precipitation 0.00 in - - ()
Sea Level Pressure  
Sea Level Pressure 29.64 in    
Wind  
Wind Speed 9 mph ()    
Max Wind Speed 20 mph    
Max Gust Speed -    
T = Trace of Precipitation, MM = Missing Value Source: Averaged Metar Reports

Daily Weather History Graph

Daily Weather History Graph

Search for Another Location

Airport:

Trip Planner

Search our weather history database for the weather conditions in past years. The results will help you decide how hot, cold, wet, or windy it might be!

Date:

Astronomy

Jan. 11, 2013 Rise Set
Actual Time 5:18 AM WST 6:39 PM WST
Civil Twilight 4:53 AM WST 7:04 PM WST
Nautical Twilight 4:24 AM WST 7:33 PM WST
Astronomical Twilight 3:54 AM WST 8:03 PM WST
Moon 4:27 AM WST (1/11) 6:03 PM WST (1/11)
Length of Visible Light 14h 10m
Length of Day
13h 21m
Waning Crescent, 1% of the Moon is Illuminated
Jan 11
Waning Crescent
Jan 12
New
Jan 19
First Quarter
Jan 27
Full
Feb 3
Last Quarter

Hourly Weather History & Observations

Time (WST) Temp. Heat Index Dew Point Humidity Pressure Visibility Wind Dir Wind Speed Gust Speed Precip Events Conditions
12:00 AM 85 °F - 66 °F 43% 29.61 in - SSW 10.4 mph - -  
12:00 AM 84.2 °F 86.6 °F 66.2 °F 55% 29.68 in - SSW 10.4 mph - N/A   Unknown
1:00 AM 84.2 °F 87.3 °F 68.0 °F 58% 29.65 in - SW 8.1 mph - N/A   Unknown
2:00 AM 84.2 °F 86.6 °F 66.2 °F 55% 29.65 in - WSW 9.2 mph - N/A   Unknown
3:00 AM 84 °F - 67 °F 47% 29.58 in - WSW 5.8 mph - -  
3:00 AM 84.2 °F 86.6 °F 66.2 °F 55% 29.65 in - WSW 5.8 mph - N/A   Unknown
4:00 AM 84.2 °F 86.6 °F 66.2 °F 55% 29.65 in - South 3.5 mph - N/A   Unknown
5:00 AM 83 °F - 67 °F 50% 29.60 in - SE 5.8 mph - -  
5:00 AM 82.4 °F 85.4 °F 68.0 °F 62% 29.65 in - SE 5.8 mph - N/A   Unknown
6:00 AM 85 °F - 67 °F 46% 29.63 in - ESE 4.6 mph - -  
6:00 AM 84.2 °F 87.3 °F 68.0 °F 58% 29.68 in - ESE 4.6 mph - N/A   Unknown
7:00 AM 86.0 °F 89.4 °F 68.0 °F 55% 29.71 in - SSE 12.7 mph - N/A   Unknown
8:00 AM 88 °F - 65 °F 36% 29.65 in - SE 11.5 mph - -  
8:00 AM 87.8 °F 89.4 °F 64.4 °F 46% 29.71 in - SE 11.5 mph - N/A   Unknown
9:00 AM 90 °F - 65 °F 34% 29.65 in - NE 5.8 mph - -  
9:00 AM 89.6 °F 92.2 °F 66.2 °F 46% 29.71 in - NE 5.8 mph - N/A   Unknown
10:00 AM 95.0 °F 98.5 °F 66.2 °F 39% 29.71 in - NE 8.1 mph - N/A   Unknown
11:00 AM 98 °F - 66 °F 26% 29.63 in - NE 6.9 mph - -  
11:00 AM 98.6 °F 102.8 °F 66.2 °F 35% 29.68 in - NE 6.9 mph - N/A   Unknown
12:00 PM 99 °F - 65 °F 24% 29.60 in - North 10.4 mph - -  
12:00 PM 98.6 °F 102.8 °F 66.2 °F 35% 29.68 in - North 10.4 mph - N/A   Unknown
1:00 PM 100.4 °F 104.9 °F 66.2 °F 33% 29.65 in - NE 10.4 mph - N/A   Unknown
2:00 PM 101 °F - 62 °F 19% 29.57 in - North 15.0 mph - -  
2:00 PM 102.2 °F 104.2 °F 62.6 °F 27% 29.62 in - North 15.0 mph - N/A   Unknown
3:00 PM 103 °F - 64 °F 19% 29.55 in - NE 12.7 mph - -  
3:00 PM 102.2 °F 105.5 °F 64.4 °F 29% 29.62 in - NE 12.7 mph - N/A   Unknown
4:00 PM 102.2 °F 104.2 °F 62.6 °F 27% 29.59 in - NE 11.5 mph - N/A   Unknown
5:00 PM 102 °F - 62 °F 18% 29.52 in - NNE 13.8 mph - -  
5:00 PM 102.2 °F 104.2 °F 62.6 °F 27% 29.59 in - NNE 13.8 mph - N/A   Unknown
6:00 PM 101 °F - 61 °F 18% 29.54 in - NNE 13.8 mph - -  
6:00 PM 102.2 °F 103.6 °F 60.8 °F 26% 29.59 in - NNE 13.8 mph - N/A   Unknown
7:00 PM 100.4 °F 102.4 °F 62.6 °F 29% 29.65 in - North 12.7 mph - N/A   Unknown
8:00 PM 99 °F - 62 °F 21% 29.61 in - North 10.4 mph - -  
8:00 PM 98.6 °F 100.0 °F 62.6 °F 30% 29.68 in - North 10.4 mph - N/A   Unknown
9:00 PM 98 °F - 62 °F 21% 29.62 in - North 8.1 mph - -  
9:00 PM 98.6 °F 100.0 °F 62.6 °F 30% 29.68 in - North 8.1 mph - N/A   Unknown
9:05 PM 95.0 °F 101.3 °F 69.8 °F 44% 29.68 in - NW 19.6 mph - N/A   Unknown
10:00 PM 87.8 °F 93.8 °F 71.6 °F 58% 29.71 in - NW 13.8 mph - N/A   Unknown
11:00 PM 87 °F - 71 °F 51% 29.66 in - NW 12.7 mph - -  
11:00 PM 87.8 °F 93.8 °F 71.6 °F 58% 29.74 in - NW 12.7 mph - N/A   Unknown